Terug naar catalogus

STARLINK-5636

ActiefCommunicatieVLEO
NORAD 55454·PAYLOAD·🇺🇸 United States

Gelanceerd Feb 2, 2023 vanaf Cape Canaveral Space Force Station

Loading…

Volgende Passages (komende 24 uur)

TLE

VersSource: CelesTrak SupGP

Epoch: Sep 14, 2026, 21:05 UTC

1 55454C 23015F   26257.87895833 -.00026462  00000+0 -95843-3 0  2577
2 55454  43.0018 340.2349 0001249 271.0757 194.7875 15.27592469    13

Volg STARLINK-5636 in realtime met AllMySat

Download on the App Store